Вернуться в каталог

SL-12 R/B

AUX MOTOR

АктивенHEO
NORAD 18374·ROCKET BODY·🇷🇺 Russia

Запущен Sep 16, 1987 с Baikonur Cosmodrome

Loading…

Ближайшие Пролёты (ближайшие 24 часа)

TLE

СвежийSource: Space-Track

Эпоха: Sep 14, 2026, 21:03 UTC

1 18374U 87079G   26257.87738731  .00002751  00000-0  12593-2 0  9997
2 18374  64.9618 230.4730 5732697 342.0279   3.9748  4.39260585609653

Отслеживайте SL-12 R/B в реальном времени с AllMySat

Download on the App Store